Location: Balls Hill
(38.9412°N, 77.1941°W)
Time: 11:20:45
(UTC+00:00)

Daily predictions for brighter satellites

Satellite Brightness Start Highest point End
(mag) Time Altitude Azimuth Time Altitude Azimuth Time Altitude Azimuth
Cosmos 2084 Rocket 4.0 22:10:19 10° NNW 22:14:11 35° NE 22:18:02 10° ESE
Cosmos 1697 Rocket 2.7 22:10:56 10° SSW 22:16:28 69° ESE 22:22:04 10° NNE
Cosmos 405 Rocket 3.8 22:13:50 10° NNW 22:16:53 40° W 22:19:53 10° SSW
Cosmos 1867 4.1 22:13:38 10° NNW 22:18:43 38° NE 22:23:45 10° ESE
Cosmos 1825 Rocket 4.3 22:15:40 10° NNE 22:19:27 29° ENE 22:23:12 10° SE
Cosmos 2098 Rocket 3.5 22:15:35 10° SSW 22:19:31 67° W 22:24:14 10° N
NOSS 2-3 (E) 3.2 22:16:07 10° SSW 22:19:50 60° ESE 22:23:28 10° NE
NOSS 2-3 (D) 3.3 22:16:38 10° SSW 22:20:22 55° ESE 22:23:59 10° NE
Cosmos 1758 Rocket 3.9 22:18:37 10° NNW 22:22:53 69° W 22:27:07 10° S
ARIANE 5 R/B 2.8 22:18:20 10° SE 22:23:05 44° ENE 22:27:56 10° N
IRIDIUM 106 4.3 22:19:31 10° N 22:24:42 63° E 22:29:51 10° SSE
Meteor 1-28 Rocket 4.4 22:27:44 10° N 22:30:51 38° WNW 22:33:57 10° SW
UNK 3.8 22:27:15 10° NNE 22:31:50 84° WNW 22:36:22 10° SSW
Cosmos 1076 Rocket 4.4 22:32:40 10° NNE 22:36:24 28° ENE 22:40:07 10° SE
SMAP 3.0 22:32:02 10° SSE 22:36:41 80° ENE 22:41:21 10° N
COSMOS 2455 4.5 22:34:15 10° SE 22:37:09 14° ESE 22:39:11 12° E
ATLAS CENTAUR R/B 2.5 22:34:29 10° NW 22:37:25 34° WSW 22:40:13 10° S
Cosmos 2058 Rocket 4.2 22:34:46 10° SE 22:38:21 24° E 22:41:58 10° NE
Cosmos 1607 4.0 22:33:07 10° NNW 22:39:23 88° ENE 22:45:43 10° SSE
COSMO-SKYMED 1 3.8 22:38:13 12° NE 22:40:43 20° E 22:43:44 10° SE
SPOT 1/Viking Rocket 4.2 22:36:23 10° SE 22:40:54 31° ENE 22:45:26 10° N
BlueWalker 3 3.5 22:37:58 10° WNW 22:41:19 36° SW 22:44:40 10° SSE
Landsat 7 3.7 22:36:48 10° SSE 22:41:24 69° ENE 22:46:02 10° N
Gbstr 26 Del rocket 3.9 22:38:35 10° W 22:42:29 36° NNW 22:45:43 12° NE
USA 290 3.7 22:43:39 10° NNW 22:46:45 41° WSW 22:49:48 10° S
Cosmos 1606 Rocket 3.6 22:44:26 10° S 22:48:49 83° W 22:53:16 10° N
IRS-P3 4.2 22:45:09 10° SSE 22:50:20 56° ENE 22:55:31 10° N
Meteor 1-20 Rocket 4.4 22:44:53 10° NNW 22:50:21 76° W 22:55:48 10° S
CZ-2D R/B 2.7 22:53:14 10° S 22:56:22 85° W 22:59:31 10° NNW
Hubble Space Telescope 3.0 22:55:25 10° SSW 22:57:27 14° S 22:59:28 10° SE
Cosmos 2297 Rocket 3.3 22:54:57 10° NW 23:00:23 49° WSW 23:05:47 10° S
AQUARIUS 4.0 22:56:25 10° SSE 23:00:48 81° ENE 23:05:13 10° N
Resurs 1-3 4.4 22:57:46 10° SE 23:01:25 28° ENE 23:05:05 10° NNE
SL-16 R/B 4.0 23:00:12 10° SE 23:01:52 13° ESE 23:01:52 13° ESE
Cosmos 1538 Rocket 4.4 22:57:58 10° N 23:02:57 40° ENE 23:07:56 10° SE
Cosmos 2266 Rocket 4.4 22:57:14 10° NNW 23:03:16 65° W 23:09:13 10° S
CZ-4C R/B 3.2 22:57:30 10° NW 23:05:00 87° WSW 23:14:00 10° SSE
Meteor 1-26 Rocket 4.3 23:02:34 10° SSE 23:07:43 46° E 23:12:48 10° NNE
Cosmos 1726 Rocket 4.1 23:07:58 10° SSW 23:12:34 63° W 23:17:08 10° N
Okean 1 3.4 23:09:17 10° SSE 23:12:39 39° E 23:13:11 36° ENE
Cosmos 1980 Rocket 2.3 23:14:21 10° SSW 23:20:00 80° WNW 23:25:04 13° NNE
Cosmos 2219 3.6 23:15:39 10° N 23:21:00 39° ENE 23:24:18 21° ESE
Cosmos 1553 Rocket 4.1 23:16:00 10° SSE 23:21:53 51° E 23:27:54 10° NNE
Spot 4 Rocket 4.0 23:17:51 10° SSE 23:22:47 54° ENE 23:27:46 10° N
Cosmos-2242 2.8 23:18:38 10° S 23:22:50 71° E 23:25:43 20° NNE
YAOGAN 1 2.6 23:20:19 10° SSE 23:24:25 52° ENE 23:28:34 10° N
Cosmos 1898 Rocket 3.3 23:22:18 10° SSW 23:27:26 81° ESE 23:30:53 21° NNE
Meteor 1-5 Rocket 4.4 23:25:23 10° NNW 23:30:43 69° W 23:36:12 10° S
SKYMED 2 3.9 23:27:50 10° N 23:32:09 65° WNW 23:36:26 10° SSW
SL-24 R/B - RUBIN 2 4.2 23:27:56 10° S 23:33:21 50° ESE 23:34:30 42° ENE
Cosmos 2369 3.6 23:27:47 10° SSW 23:33:28 73° ESE 23:36:34 28° NNE
Cosmos 2263 Rocket 2.1 23:29:22 10° NNW 23:35:05 75° ENE 23:40:45 10° SSE
Cosmos 372 Rocket 4.3 23:33:47 10° SSW 23:38:53 63° WNW 23:42:48 17° N
Helios 1A Rocket 3.0 23:46:13 50° SSW 23:46:13 50° SSW 23:48:48 10° SSW
Cosmos 1937 Rocket 3.3 23:40:40 10° SSW 23:45:51 86° ESE 23:47:52 38° NNE
Cosmos 858 Rocket 4.4 23:43:08 10° S 23:48:14 63° ESE 23:48:48 59° ENE
Cosmos 1244 Rocket 4.3 23:42:34 10° N 23:48:52 83° E 23:55:03 10° S
Cosmos 2227 Rocket 3.4 23:46:31 10° NW 23:51:49 43° WSW 23:57:06 10° S
